Погода в Большом Улуе

Россия / Красноярский край     56°39′16″N   90°34′17″E
темп.,
°C
ветер,
м/с
пор.,
м/с
влажн.,
%
обл.,
%
осадки,
мм/ч
давл.,
гПа
погр.,
м
24 января, пн
пн2401:00−16юз119974 0.3 103411
04:00−18зюз1110075 0.1 10359
07:00−21зюз1110091 0.1 10369
10:00−20зюз1210098 0.1 103755
13:00−14зюз2391100 0.1 1036278
16:00−13зюз2494100 0.1 1036214
19:00−15юз2697100 0.1 1037172
22:00−14юз3795100 0.0 1037249
25 января, вт
вт2501:00−13юз3994100 0.1 1036412
04:00−15юз3995100 0.1 1035371
07:00−16юз3995100 0.1 1035397
10:00−15юз3895100 0.3 1034376
13:00−14юз3689100 0.5 1033541
16:00−13юз3694100 0.3 1032540
19:00−13юз3795100 0.6 1031484
22:00−14юз2796100 0.4 1031463
26 января, ср
ср2601:00−13юз2796100 0.8 1031460
04:00−13юз2796100 0.6 1031425
07:00−13юз2796100 1.1 1031454
10:00−12юз2596100 0.8 1032385
13:00−11зюз2492100 1.3 1031469
16:00−11зюз1294100 0.6 1031328
19:00−12ююв0097100 1.0 103212
22:00−13всв0097100 0.3 103311
27 января, чт
чт2701:00−15с0098100 0.6 103310
04:00−16сз0099100 0.2 10349
07:00−17зсз0098100 0.3 103510
10:00−16юз0097100 0.1 103729
13:00−12з1290100 0.2 1037300
16:00−12ссз019499 0.1 103766
19:00−16вюв009998 0.2 10399
22:00−19ююв0010090 0.1 10409
28 января, пт
пт2801:00−20ююз1110092 0.1 10409
04:00−20ю1110093 0.1 10409
07:00−21ю1110088 0.1 10409
10:00−20ю1110082 0.1 104028
13:00−14ю1292100 0.1 1039244
16:00−13ююв129495 0.1 103879
19:00−22ююв1110084 0.1 10399
22:00−23ююв11100100 0.0 10399